Weather in Kamenka

Russia / Kaluga Oblast     54°08′53″N   35°53′56″E
temp.,
°C
wind,
m/s
gust,
m/s
humid.,
%
clouds,
%
prec.,
mm/h
press.,
hPa
HPBL,
m
16 april, fri
fri1600:00+10e2388100 0.6 101463
03:00+10ese249196 1.1 1014124
06:00+8e359320 0.0 101586
09:00+12ese4676100 0.0 1016437
12:00+15ese5759100 0.4 10161381
15:00+15ese5759100 2.4 10161386
18:00+11e378684 14.8 1016293
21:00+10ene238777 15.4 101740
17 april, sat
sat1700:00+8se11908 0.1 101825
03:00+7se118443 0.1 101910
06:00+7ne3493100 0.1 101983
09:00+9ne6991100 0.1 1019486
12:00+10ene61191100 0.2 1018872
15:00+10se3991100 6.0 1017513
18:00+8ene31191100 10.6 1016480
21:00+8ene41194100 16.9 1017493
18 april, sun
sun1800:00+6ese4893100 2.6 1018505
03:00+5ese2694100 2.6 1020216
06:00+3ene349480 0.0 102089
09:00+7e468893 0.1 1020589
12:00+10ese466737 0.3 10191224
15:00+11ese3563100 0.6 10191086
18:00+8ene7108891 0.9 1020638
21:00+6ene6119191 1.0 1021519
19 april, mon
mon1900:00+6ene61090100 0.0 1020544
03:00+6ene6108996 0.1 1020579
06:00+6ene71291100 0.0 1020553
09:00+6e61092100 1.1 1020990
12:00+6e61092100 1.9 10201009
15:00+8ene61186100 2.2 1019784
18:00+8ene71387100 2.8 1018670
21:00+7e91588100 2.8 1018704
20 april, tue
tue2000:00+6e7139097 0.0 1018680
03:00+6e61290100 0.0 1017642
06:00+5e61288100 0.0 1015776
09:00+6ene81594100 0.0 1013814
12:00+6ene101892100 1.8 1008884
15:00+6ene112292100 10.8 10031306
18:00+7ese102091100 5.8 9991045
21:00+9ese6139562 8.8 999471